Location: Unspecified
(0.0000°N, 0.0000°E)
Time: 16:21:35
(UTC+00:00)

AD-A Canister/Altair 2 - Pass Details

Date: 04 May 2025
Orbit: 593 x 2295 km, 78.6° (Epoch: 12 May)

Event Time Altitude Azimuth Distance (km) Brightness Sun altitude
Rises 20:18:20 0° 207° (SSW) 5,880 11.6 -33.8°
Reaches altitude 10° 20:22:29 10° 215° (SW) 4,870 11.2 -34.8°
Maximum altitude 20:33:32 34° 273° (W) 3,092 10.4 -37.4°
Drops below altitude 10° 20:43:01 10° 333° (NNW) 4,123 11.2 -39.6°
Sets 20:46:17 0° 343° (NNW) 4,891 11.6 -40.3°
